Back to catalog

SCOUT B DEB

AliveUNKNOWN
NORAD 37862·DEBRIS·🇺🇸 United States

Launched Aug 10, 1965 from Wallops Flight Facility

Loading…

Next Passes (next 24 hours)

TLE

FreshSource: Space-Track

Epoch: Sep 14, 2026, 03:05 UTC

1 37862U 65063AE  26257.12894642  .00012646  00000-0  23231-1 0  9995
2 37862  69.1413 299.3254 0760939 212.8293 142.3222 12.61476899761673

Track SCOUT B DEB in real time with AllMySat

Download on the App Store